Aswan, Egypt

3:40 AM EET on May 01, 2017 (GMT +0200)
Aswan

Weather History for HESN - May, 2014

Change the Weather History Date:

Wednesday, May 7, 2014

  Actual Average Record
Temperature  
Mean Temperature 90 °F -  
Max Temperature 101 °F 101 °F 114 °F (2004)
Min Temperature 78 °F 76 °F 68 °F (1997)
Cooling Degree Days 24    
Growing Degree Days 40 (Base 50)    
Moisture  
Dew Point 49 °F    
Average Humidity 25    
Maximum Humidity 51    
Minimum Humidity 7    
Precipitation  
Precipitation 0.00 in 0.00 in - ()
Sea Level Pressure  
Sea Level Pressure 29.74 in    
Wind  
Wind Speed 6 mph ()    
Max Wind Speed 32 mph    
Max Gust Speed -    
Visibility 3.5 miles    
Events      
Averages and records for this station are not official NWS values.
T = Trace of Precipitation, MM = Missing Value Source: Averaged Metar Reports

Daily Weather History Graph

Daily Weather History Graph

Search for Another Location

Airport or City:

Trip Planner

Search our weather history database for the weather conditions in past years. The results will help you decide how hot, cold, wet, or windy it might be!

Date:

Astronomy

May. 07, 2014 Rise Set
Actual Time 5:10 AM EET 6:20 PM EET
Civil Twilight 4:46 AM EET 6:44 PM EET
Nautical Twilight 4:18 AM EET 7:13 PM EET
Astronomical Twilight 3:48 AM EET 7:42 PM EET
Moon 11:52 AM EET (5/7) 12:10 AM EET (5/7)
Length of Visible Light 13h 57m
Length of Day
13h 09m
First Quarter, 53% of the Moon is Illuminated
May 7
First Quarter
May 14
Full
May 21
Last Quarter
May 28
New
Jun 5
First Quarter

Hourly Weather History & Observations

Time (EET) Temp. Heat Index Dew Point Humidity Pressure Visibility Wind Dir Wind Speed Gust Speed Precip Events Conditions
1:00 AM 86.0 °F - 50.0 °F 29% 29.80 in - East 3.5 mph - N/A   Clear
2:00 AM 86 °F - 49 °F 18% 29.72 in 6 mi NNE 2.3 mph - -  
2:00 AM 86.0 °F - 48.2 °F 27% 29.74 in - NNE 2.3 mph - N/A   Clear
3:00 AM 84.2 °F - 51.8 °F 33% 29.74 in - SSE 6.9 mph - N/A   Clear
4:00 AM 84.2 °F 83.0 °F 55.4 °F 37% 29.74 in - NW 2.3 mph - N/A   Clear
5:00 AM 83 °F - 49 °F 20% 29.74 in 6 mi NW 2.3 mph - -  
5:00 AM 84.2 °F - 48.2 °F 29% 29.77 in - NW 2.3 mph - N/A   Clear
6:00 AM 82.4 °F - 50.0 °F 32% 29.77 in - SSW 4.6 mph - N/A   Clear
7:00 AM 84.2 °F - 50.0 °F 30% 29.77 in - WNW 3.5 mph - N/A   Clear
8:00 AM 90 °F - 48 °F 15% 29.75 in 6 mi North 4.6 mph - -   Partly Cloudy
8:00 AM 89.6 °F - 48.2 °F 24% 29.77 in - North 4.6 mph - N/A   Clear
9:00 AM 93.2 °F - 46.4 °F 20% 29.80 in - North 4.6 mph - N/A   Clear
10:00 AM 95.0 °F - 46.4 °F 19% 29.77 in - NNE 9.2 mph - N/A   Clear
11:00 AM 97 °F - 45 °F 9% 29.72 in 6 mi NE 5.8 mph - -   Scattered Clouds
11:00 AM 96.8 °F - 44.6 °F 17% 29.77 in - NE 5.8 mph - N/A   Clear
12:00 PM 98.6 °F - 44.6 °F 16% 29.71 in - NNE 9.2 mph - N/A   Clear
1:00 PM 100.4 °F - 44.6 °F 15% 29.71 in - NW 6.9 mph - N/A   Clear
2:00 PM 101 °F - 43 °F 7% 29.64 in 6 mi NW 5.8 mph - -  
2:00 PM 100.4 °F - 42.8 °F 14% 29.68 in - NW 5.8 mph - N/A   Clear
3:00 PM 100.4 °F - 42.8 °F 14% 29.65 in - North 6.9 mph - N/A   Clear
4:00 PM 102.2 °F - 42.8 °F 13% 29.65 in - North 3.5 mph - N/A   Clear
5:00 PM 90 °F - 53 °F 19% 29.65 in 0 mi WNW 32.2 mph - -   Sandstorm
5:00 PM 89.6 °F 87.3 °F 53.6 °F 29% 29.68 in 0.0 mi WNW 32.2 mph - N/A   Unknown
6:00 PM 86.0 °F - 41.0 °F 20% 29.71 in 0.3 mi NW 16.1 mph - N/A   Sandstorm
7:00 PM 86.0 °F 86.6 °F 62.6 °F 45% 29.80 in 2.5 mi WNW 28.8 mph - N/A   Sand
8:00 PM 80 °F - 58 °F 36% 29.73 in 2 mi NNW 12.7 mph - -   Blowing Sand
8:00 PM 80.6 °F 80.8 °F 57.2 °F 45% 29.77 in 2.5 mi NNW 12.7 mph - N/A   Sand
9:00 PM 78.8 °F - 59.0 °F 51% 29.77 in 3.7 mi North 6.9 mph - N/A   Unknown
10:00 PM 78.8 °F - 57.2 °F 47% 29.77 in 3.7 mi North 5.8 mph - N/A   Unknown
11:00 PM 80 °F - 47 °F 21% 29.75 in 4 mi NNW 10.4 mph - -   Widespread Dust
11:00 PM 80.6 °F - 48.2 °F 32% 29.77 in 3.7 mi NNW 10.4 mph - N/A   Unknown